Location: *
(43.4667°N, 11.6833°E)
Time: 06:31:00
(UTC+00:00)

H-2A R/B - Visible Passes

Search period start: 20 October 2019 00:00
Search period end: 30 October 2019 00:00
Orbit: 734 x 836 km, 98.3° (Epoch: 19 October)

Date Brightness Start Highest point End Pass type
(mag) Time Alt. Az. Time Alt. Az. Time Alt. Az.
20 Oct 3.8 17:33:28 14° ENE 17:33:28 14° ENE 17:36:07 10° NNE visible
20 Oct 3.1 19:14:06 39° NNW 19:14:06 39° NNW 19:17:27 10° NNW visible
21 Oct 3.0 18:42:58 36° NNE 18:42:58 36° NNE 18:46:24 10° N visible
21 Oct 4.7 20:23:36 16° NW 20:23:36 16° NW 20:25:05 10° NW visible
22 Oct 3.3 18:11:50 25° NE 18:11:50 25° NE 18:15:04 10° N visible
22 Oct 4.1 19:52:28 24° NW 19:52:28 24° NW 19:54:51 10° NNW visible
23 Oct 3.8 17:40:41 16° NE 17:40:41 16° NE 17:43:14 10° NNE visible
23 Oct 3.5 19:21:20 32° NNW 19:21:20 32° NNW 19:24:11 10° NNW visible
24 Oct 3.3 18:50:12 32° N 18:50:12 32° N 18:53:12 10° N visible
24 Oct 4.9 20:30:50 13° NW 20:30:50 13° NW 20:31:34 10° NW visible
25 Oct 3.4 18:19:04 25° NNE 18:19:04 25° NNE 18:21:57 10° N visible
25 Oct 4.4 19:59:42 20° NW 19:59:42 20° NW 20:01:29 10° NNW visible
26 Oct 3.8 17:47:56 17° NE 17:47:56 17° NE 17:50:15 10° NNE visible
26 Oct 3.9 19:28:34 26° NNW 19:28:34 26° NNW 19:30:54 10° NNW visible
27 Oct 4.1 17:16:47 10° NE 17:16:47 10° NE 17:17:03 10° NE visible
27 Oct 3.6 18:57:25 28° N 18:57:25 28° N 18:59:59 10° N visible
28 Oct 3.6 18:26:17 24° NNE 18:26:17 24° NNE 18:28:47 10° N visible
28 Oct 4.7 20:06:55 16° NW 20:06:55 16° NW 20:08:06 10° NNW visible
29 Oct 3.8 17:55:09 18° NE 17:55:09 18° NE 17:57:14 10° NNE visible
29 Oct 4.2 19:35:47 21° NNW 19:35:47 21° NNW 19:37:35 10° NNW visible
